| time (UTC) | temp C | wind direction | speed KPH | gust KPH | rain 1hr cm | rain 24hr cm | rain mn cm | humidity % | barometer mb |
| 20260507051026 | 13 | 240 | 6.4 | 12.9 | 0.00 | 0.00 | 0.00 | 71 | 1012.3 |
| 20260507050018 | 13 | 241 | 6.4 | 12.9 | 0.00 | 0.00 | 0.00 | 71 | 1012.4 |
| 20260507045011 | 13 | 241 | 8.0 | 17.7 | 0.00 | 0.00 | 0.00 | 72 | 1012.1 |
| 20260507044005 | 13 | 236 | 6.4 | 12.9 | 0.00 | 0.00 | 0.00 | 72 | 1012.1 |
| 20260507042958 | 13 | 239 | 6.4 | 14.5 | 0.00 | 0.00 | 0.00 | 72 | 1011.9 |
| 20260507041951 | 12 | 244 | 9.7 | 20.9 | 0.00 | 0.00 | 0.00 | 73 | 1011.8 |
| 20260507040942 | 12 | 241 | 9.7 | 14.5 | 0.00 | 0.00 | 0.00 | 73 | 1011.4 |
| 20260507035935 | 12 | 241 | 6.4 | 11.3 | 0.00 | 0.00 | 0.00 | 73 | 1011.4 |
| 20260507034928 | 12 | 238 | 6.4 | 11.3 | 0.00 | 0.00 | 0.00 | 73 | 1011.3 |
| 20260507033921 | 13 | 247 | 8.0 | 14.5 | 0.00 | 0.00 | 0.00 | 72 | 1011.4 |
| 20260507032913 | 13 | 243 | 11.3 | 17.7 | 0.00 | 0.00 | 0.00 | 72 | 1011.2 |
| 20260507031906 | 13 | 241 | 9.7 | 17.7 | 0.00 | 0.00 | 0.00 | 72 | 1011.3 |
| 20260507030857 | 13 | 242 | 9.7 | 16.1 | 0.00 | 0.00 | 0.00 | 71 | 1011.1 |
| 20260507025851 | 13 | 240 | 8.0 | 12.9 | 0.00 | 0.00 | 0.00 | 71 | 1010.9 |
| 20260507024844 | 13 | 243 | 6.4 | 12.9 | 0.00 | 0.00 | 0.00 | 71 | 1010.8 |
| 20260507023838 | 13 | 239 | 6.4 | 11.3 | 0.00 | 0.00 | 0.00 | 71 | 1010.7 |
| 20260507022830 | 13 | 240 | 8.0 | 17.7 | 0.00 | 0.00 | 0.00 | 71 | 1010.7 |
| 20260507021823 | 14 | 241 | 11.3 | 17.7 | 0.00 | 0.00 | 0.00 | 71 | 1010.8 |
| 20260507020816 | 14 | 239 | 11.3 | 17.7 | 0.00 | 0.00 | 0.00 | 71 | 1010.6 |
| 20260507015808 | 14 | 243 | 11.3 | 17.7 | 0.00 | 0.00 | 0.00 | 70 | 1010.7 |
| 20260507014801 | 14 | 245 | 11.3 | 17.7 | 0.00 | 0.00 | 0.00 | 70 | 1010.5 |
| 20260507013754 | 14 | 241 | 11.3 | 17.7 | 0.00 | 0.00 | 0.00 | 71 | 1010.6 |
| 20260507012746 | 14 | 238 | 8.0 | 16.1 | 0.00 | 0.00 | 0.00 | 72 | 1010.5 |
| 20260507011738 | 14 | 241 | 6.4 | 11.3 | 0.00 | 0.00 | 0.00 | 72 | 1010.2 |
| 20260507010731 | 14 | 244 | 8.0 | 16.1 | 0.00 | 0.00 | 0.00 | 72 | 1010.2 |
| 20260507005724 | 15 | 241 | 14.5 | 22.5 | 0.00 | 0.00 | 0.00 | 71 | 1010.2 |
| 20260507004718 | 15 | 242 | 11.3 | 25.7 | 0.00 | 0.00 | 0.00 | 71 | 1010.0 |
| 20260507003710 | 15 | 245 | 8.0 | 16.1 | 0.00 | 0.00 | 0.00 | 70 | 1010.1 |
| 20260507002703 | 14 | 210 | 0.0 | 4.8 | 0.00 | 0.00 | 0.00 | 72 | 1009.9 |
| 20260507001703 | 15 | 233 | 3.2 | 4.8 | 0.00 | 0.00 | 0.00 | 70 | 1009.6 |
| 20260507000657 | 15 | 239 | 6.4 | 11.3 | 0.00 | 0.00 | 0.00 | 68 | 1009.6 |
| 20260506235650 | 15 | 247 | 8.0 | 12.9 | 0.00 | 0.00 | 0.00 | 68 | 1009.6 |
| 20260506234641 | 15 | 246 | 8.0 | 14.5 | 0.00 | 0.00 | 0.00 | 67 | 1009.4 |
| 20260506233635 | 15 | 249 | 8.0 | 16.1 | 0.00 | 0.00 | 0.00 | 67 | 1009.3 |
| 20260506232628 | 15 | 238 | 6.4 | 9.7 | 0.00 | 0.00 | 0.00 | 67 | 1009.1 |
| 20260506231622 | 15 | 227 | 1.6 | 4.8 | 0.00 | 0.00 | 0.00 | 65 | 1009.0 |
| 20260506230614 | 16 | 221 | 1.6 | 4.8 | 0.00 | 0.00 | 0.00 | 63 | 1008.8 |
| 20260506225607 | 16 | 235 | 4.8 | 12.9 | 0.00 | 0.00 | 0.00 | 62 | 1008.7 |
| 20260506224600 | 16 | 239 | 8.0 | 12.9 | 0.00 | 0.00 | 0.00 | 63 | 1008.7 |
| 20260506223552 | 16 | 240 | 6.4 | 9.7 | 0.00 | 0.00 | 0.00 | 63 | 1008.4 |
| 20260506222545 | 17 | 238 | 6.4 | 12.9 | 0.00 | 0.00 | 0.00 | 62 | 1007.8 |
| 20260506221545 | 17 | 246 | 8.0 | 20.9 | 0.00 | 0.00 | 0.00 | 61 | 1007.8 |
| 20260506220539 | 17 | 245 | 8.0 | 20.9 | 0.00 | 0.00 | 0.00 | 61 | 1007.6 |
| 20260506215532 | 17 | 226 | 3.2 | 9.7 | 0.00 | 0.00 | 0.00 | 61 | 1007.3 |
| 20260506214526 | 17 | 243 | 6.4 | 12.9 | 0.00 | 0.00 | 0.00 | 58 | 1007.2 |
| 20260506213518 | 17 | 243 | 8.0 | 24.1 | 0.00 | 0.00 | 0.00 | 57 | 1007.1 |
| 20260506212511 | 17 | 207 | 1.6 | 6.4 | 0.00 | 0.00 | 0.00 | 60 | 1006.4 |
| 20260506211503 | 17 | 154 | 1.6 | 9.7 | 0.00 | 0.00 | 0.00 | 58 | 1006.2 |
| 20260506210456 | 18 | 126 | 3.2 | 9.7 | 0.00 | 0.00 | 0.00 | 58 | 1006.2 |
| 20260506205449 | 18 | 128 | 3.2 | 11.3 | 0.00 | 0.00 | 0.00 | 57 | 1006.2 |
| 20260506204441 | 17 | 162 | 1.6 | 6.4 | 0.00 | 0.00 | 0.00 | 58 | 1006.0 |
| 20260506203434 | 17 | 145 | 1.6 | 6.4 | 0.00 | 0.00 | 0.00 | 60 | 1006.1 |
| 20260506202427 | 17 | 148 | 1.6 | 6.4 | 0.00 | 0.00 | 0.00 | 60 | 1005.9 |
| 20260506201419 | 18 | 99 | 3.2 | 12.9 | 0.00 | 0.00 | 0.00 | 57 | 1005.9 |
| 20260506200412 | 18 | 105 | 4.8 | 11.3 | 0.00 | 0.00 | 0.00 | 54 | 1005.4 |
| 20260506195406 | 19 | 77 | 6.4 | 12.9 | 0.00 | 0.00 | 0.00 | 54 | 1005.5 |
| 20260506194359 | 19 | 113 | 3.2 | 11.3 | 0.00 | 0.00 | 0.00 | 53 | 1005.4 |
| 20260506193352 | 20 | 110 | 3.2 | 11.3 | 0.00 | 0.00 | 0.00 | 52 | 1005.4 |
| 20260506192345 | 20 | 107 | 4.8 | 17.7 | 0.00 | 0.00 | 0.00 | 51 | 1004.7 |
| 20260506191336 | 20 | 121 | 3.2 | 12.9 | 0.00 | 0.00 | 0.00 | 51 | 1004.9 |
| 20260506190329 | 20 | 130 | 3.2 | 14.5 | 0.00 | 0.00 | 0.00 | 50 | 1004.7 |
| 20260506185322 | 20 | 143 | 3.2 | 14.5 | 0.00 | 0.00 | 0.00 | 49 | 1004.7 |
| 20260506184315 | 20 | 141 | 3.2 | 12.9 | 0.00 | 0.00 | 0.00 | 49 | 1004.9 |
| 20260506183308 | 21 | 122 | 3.2 | 12.9 | 0.00 | 0.00 | 0.00 | 49 | 1004.4 |
| 20260506182259 | 21 | 142 | 3.2 | 16.1 | 0.00 | 0.00 | 0.00 | 48 | 1004.2 |
| 20260506181252 | 21 | 124 | 4.8 | 11.3 | 0.00 | 0.00 | 0.00 | 48 | 1004.2 |
| 20260506180247 | 21 | 122 | 3.2 | 12.9 | 0.00 | 0.00 | 0.00 | 47 | 1004.0 |
| 20260506175240 | 22 | 141 | 4.8 | 12.9 | 0.00 | 0.00 | 0.00 | 47 | 1003.9 |
| 20260506174232 | 22 | 137 | 3.2 | 12.9 | 0.00 | 0.00 | 0.00 | 46 | 1003.7 |
| 20260506173225 | 22 | 124 | 3.2 | 9.7 | 0.00 | 0.00 | 0.00 | 46 | 1004.0 |
| 20260506172217 | 22 | 121 | 3.2 | 12.9 | 0.00 | 0.00 | 0.00 | 47 | 1004.1 |
| 20260506171210 | 22 | 123 | 4.8 | 16.1 | 0.00 | 0.00 | 0.00 | 46 | 1004.1 |
| 20260506170203 | 23 | 134 | 4.8 | 16.1 | 0.00 | 0.00 | 0.00 | 44 | 1004.1 |
| 20260506165155 | 23 | 133 | 4.8 | 17.7 | 0.00 | 0.00 | 0.00 | 43 | 1004.2 |
| 20260506164147 | 23 | 159 | 4.8 | 16.1 | 0.00 | 0.00 | 0.00 | 43 | 1004.1 |
| 20260506163140 | 23 | 162 | 4.8 | 16.1 | 0.00 | 0.00 | 0.00 | 42 | 1004.4 |
| 20260506162134 | 24 | 145 | 4.8 | 17.7 | 0.00 | 0.00 | 0.00 | 42 | 1004.3 |
| 20260506161128 | 24 | 149 | 4.8 | 17.7 | 0.00 | 0.00 | 0.00 | 41 | 1004.5 |
| 20260506160119 | 25 | 149 | 4.8 | 14.5 | 0.00 | 0.00 | 0.00 | 40 | 1004.4 |
| 20260506155112 | 25 | 121 | 4.8 | 24.1 | 0.00 | 0.00 | 0.00 | 39 | 1004.5 |
| 20260506154105 | 25 | 144 | 4.8 | 17.7 | 0.00 | 0.00 | 0.00 | 37 | 1004.2 |
| 20260506153058 | 26 | 121 | 4.8 | 12.9 | 0.00 | 0.00 | 0.00 | 37 | 1004.3 |
| 20260506152058 | 26 | 151 | 6.4 | 17.7 | 0.00 | 0.00 | 0.00 | 36 | 1004.4 |
| 20260506151051 | 26 | 110 | 8.0 | 17.7 | 0.00 | 0.00 | 0.00 | 36 | 1004.5 |
| 20260506150044 | 26 | 111 | 6.4 | 22.5 | 0.00 | 0.00 | 0.00 | 38 | 1004.6 |
| 20260506145038 | 26 | 91 | 9.7 | 22.5 | 0.00 | 0.00 | 0.00 | 38 | 1004.6 |
| 20260506144031 | 26 | 107 | 8.0 | 24.1 | 0.00 | 0.00 | 0.00 | 38 | 1004.8 |
| 20260506143024 | 25 | 117 | 8.0 | 22.5 | 0.00 | 0.00 | 0.00 | 38 | 1004.9 |
| 20260506142016 | 25 | 90 | 9.7 | 25.7 | 0.00 | 0.00 | 0.00 | 38 | 1005.0 |
| 20260506141008 | 25 | 113 | 9.7 | 25.7 | 0.00 | 0.00 | 0.00 | 37 | 1005.4 |
| 20260506140001 | 26 | 103 | 9.7 | 24.1 | 0.00 | 0.00 | 0.00 | 36 | 1005.2 |
| 20260506134954 | 26 | 112 | 9.7 | 27.4 | 0.00 | 0.00 | 0.00 | 37 | 1005.4 |
| 20260506133947 | 25 | 101 | 11.3 | 27.4 | 0.00 | 0.00 | 0.00 | 37 | 1005.5 |
| 20260506132939 | 25 | 94 | 9.7 | 25.7 | 0.00 | 0.00 | 0.00 | 39 | 1005.5 |
| 20260506131932 | 25 | 93 | 11.3 | 29.0 | 0.00 | 0.00 | 0.00 | 39 | 1006.1 |
| 20260506130924 | 25 | 91 | 11.3 | 27.4 | 0.00 | 0.00 | 0.00 | 40 | 1006.4 |
| 20260506125917 | 24 | 89 | 9.7 | 24.1 | 0.00 | 0.00 | 0.00 | 40 | 1006.5 |
| 20260506124911 | 23 | 103 | 9.7 | 24.1 | 0.00 | 0.00 | 0.00 | 41 | 1006.6 |
| 20260506123904 | 25 | 107 | 9.7 | 25.7 | 0.00 | 0.00 | 0.00 | 40 | 1006.6 |
| 20260506122856 | 25 | 113 | 8.0 | 22.5 | 0.00 | 0.00 | 0.00 | 39 | 1007.1 |
| 20260506121848 | 25 | 108 | 8.0 | 24.1 | 0.00 | 0.00 | 0.00 | 38 | 1006.9 |
| 20260506120842 | 25 | 100 | 9.7 | 27.4 | 0.00 | 0.00 | 0.00 | 41 | 1007.0 |
| 20260506115834 | 24 | 111 | 9.7 | 22.5 | 0.00 | 0.00 | 0.00 | 41 | 1007.2 |
| 20260506114827 | 24 | 92 | 11.3 | 27.4 | 0.00 | 0.00 | 0.00 | 40 | 1007.3 |
| 20260506113827 | 24 | 105 | 9.7 | 24.1 | 0.00 | 0.00 | 0.00 | 41 | 1007.3 |
| 20260506112823 | 23 | 84 | 9.7 | 20.9 | 0.00 | 0.00 | 0.00 | 43 | 1007.6 |
| 20260506111815 | 25 | 137 | 8.0 | 22.5 | 0.00 | 0.00 | 0.00 | 42 | 1007.6 |
| 20260506110808 | 24 | 122 | 6.4 | 20.9 | 0.00 | 0.00 | 0.00 | 44 | 1007.7 |
| 20260506105800 | 23 | 87 | 11.3 | 25.7 | 0.00 | 0.00 | 0.00 | 45 | 1007.8 |
| 20260506104753 | 23 | 112 | 8.0 | 22.5 | 0.00 | 0.00 | 0.00 | 44 | 1008.0 |
| 20260506103745 | 23 | 104 | 8.0 | 29.0 | 0.00 | 0.00 | 0.00 | 42 | 1008.0 |
| 20260506102738 | 23 | 96 | 9.7 | 22.5 | 0.00 | 0.00 | 0.00 | 44 | 1007.9 |
| 20260506101738 | 23 | 87 | 9.7 | 24.1 | 0.00 | 0.00 | 0.00 | 45 | 1008.3 |
| 20260506100732 | 23 | 88 | 9.7 | 25.7 | 0.00 | 0.00 | 0.00 | 43 | 1008.5 |
| 20260506095725 | 23 | 110 | 6.4 | 24.1 | 0.00 | 0.00 | 0.00 | 44 | 1008.6 |
| 20260506094717 | 23 | 97 | 8.0 | 16.1 | 0.00 | 0.00 | 0.00 | 45 | 1008.6 |
| 20260506093712 | 23 | 91 | 4.8 | 12.9 | 0.00 | 0.00 | 0.00 | 46 | 1008.8 |
| 20260506092704 | 22 | 96 | 6.4 | 17.7 | 0.00 | 0.00 | 0.00 | 48 | 1009.0 |
| 20260506091656 | 23 | 127 | 4.8 | 14.5 | 0.00 | 0.00 | 0.00 | 44 | 1008.9 |
| 20260506090649 | 23 | 116 | 3.2 | 11.3 | 0.00 | 0.00 | 0.00 | 44 | 1008.8 |
| 20260506085641 | 23 | 130 | 3.2 | 9.7 | 0.00 | 0.00 | 0.00 | 42 | 1008.8 |
| 20260506084634 | 22 | 143 | 3.2 | 11.3 | 0.00 | 0.00 | 0.00 | 44 | 1009.1 |
| 20260506083627 | 22 | 149 | 1.6 | 6.4 | 0.00 | 0.00 | 0.00 | 43 | 1009.1 |
| 20260506082619 | 22 | 166 | 1.6 | 4.8 | 0.00 | 0.00 | 0.00 | 46 | 1009.1 |
| 20260506081612 | 21 | 219 | 3.2 | 9.7 | 0.00 | 0.00 | 0.00 | 48 | 1009.2 |
| 20260506080604 | 20 | 239 | 6.4 | 12.9 | 0.00 | 0.00 | 0.00 | 50 | 1009.3 |
| 20260506072536 | 20 | 240 | 9.7 | 16.1 | 0.00 | 0.00 | 0.00 | 56 | 1009.7 |
| 20260506071528 | 20 | 230 | 6.4 | 14.5 | 0.00 | 0.00 | 0.00 | 55 | 1009.8 |
| 20260506070521 | 19 | 235 | 6.4 | 12.9 | 0.00 | 0.00 | 0.00 | 56 | 1009.9 |
| 20260506062452 | 17 | 217 | 3.2 | 12.9 | 0.00 | 0.00 | 0.00 | 66 | 1009.7 |
| 20260506061445 | 17 | 211 | 1.6 | 4.8 | 0.00 | 0.00 | 0.00 | 67 | 1009.9 |
| 20260506060436 | 17 | 209 | 1.6 | 3.2 | 0.00 | 0.00 | 0.00 | 68 | 1009.8 |
| 20260506051401 | 16 | 241 | 6.4 | 12.9 | 0.00 | 0.00 | 0.00 | 74 | 1009.8 |